{"data":{"norad_id":64265,"epoch":"2026-05-25T04:34:06.043008Z","epoch_age_seconds":52425,"freshness":"FRESH","line1":"1 64265U 25120K   26145.19034772  .00017270  00000+0  59357-3 0  9992","line2":"2 64265  53.1607 121.7119 0001459  92.9506 267.1662 15.30215217 55624","mean_motion":15.30215217,"eccentricity":0.0001459,"inclination_deg":53.1607,"raan_deg":121.7119,"arg_perigee_deg":92.9506,"mean_anomaly_deg":267.1662,"bstar":0.00059357,"rev_number":5562,"period_min":94.104409889684,"perigee_km":474.16973713874,"apogee_km":476.16953201471,"semimajor_km":6853.3066345767,"source":"CELESTRAK","updated_at":"2026-05-25T13:38:20.358807Z"}}